Location: Mount Cross
(36.6390°N, 79.4878°W)
Time: 09:37:30
(UTC+00:00)

Vanguard 1 Rocket - Pass Details

Date: 07 April 2023
Orbit: 654 x 4221 km, 34.3° (Epoch: 01 June)

Event Time Altitude Azimuth Distance (km) Brightness Sun altitude
Rises 02:38:14 0° 260° (W) 8,113 12.7 -32.4°
Reaches altitude 10° 02:43:31 10° 260° (W) 7,281 12.4 -33.2°
Maximum altitude 03:10:16 84° 177° (S) 3,856 10.2 -37.0°
Enters shadow 03:19:23 47° 96° (E) 4,048 10.2 -38.2°
Drops below altitude 10° 03:28:51 10° 93° (E) 5,400 - -39.4°
Sets 03:32:05 0° 92° (E) 6,044 - -39.8°
